• In Uzbekistan
  • List of Countries
  • For 7 days
  • Water Temperature
  • Satellite Maps
  • Weather Map
  • Weather Widgets
  • user-avatar
    Login

    Hourly Weather Chrewt

    Today, 24 September, Monday

    Time Temperature Precipitation Wind Pressure Humidity
    00:00 +12°C° 0.3 mm 9 mps 716 mmHg 63%
    01:00 +12°C° 0.3 mm 9 mps 715 mmHg 68%
    02:00 +12°C° 0.3 mm 9 mps 715 mmHg 73%
    03:00 +12°C° 1.8 mm 8 mps 715 mmHg 79%
    04:00 +11°C° 1.8 mm 7 mps 715 mmHg 85%
    05:00 +11°C° 1.8 mm 7 mps 715 mmHg 91%
    06:00 +10°C° 1.5 mm 6 mps 716 mmHg 90%
    07:00 +9°C° 1.5 mm 6 mps 718 mmHg 89%
    08:00 +8°C° 1.5 mm 6 mps 719 mmHg 88%
    09:00 +7°C° 0.1 mm 6 mps 720 mmHg 87%
    10:00 +7°C° 0.1 mm 6 mps 721 mmHg 85%
    11:00 +7°C° 0.1 mm 5 mps 722 mmHg 84%
    12:00 +8°C° 0.1 mm 6 mps 723 mmHg 79%
    13:00 +8°C° 0.1 mm 6 mps 723 mmHg 74%
    14:00 +9°C° 0.1 mm 7 mps 724 mmHg 70%
    15:00 +9°C° 0.1 mm 7 mps 724 mmHg 68%
    16:00 +8°C° 0.1 mm 6 mps 725 mmHg 66%
    17:00 +8°C° 0.1 mm 6 mps 725 mmHg 64%
    18:00 +7°C° 0 mm 5 mps 725 mmHg 67%
    19:00 +6°C° 0 mm 5 mps 726 mmHg 70%
    20:00 +5°C° 0 mm 4 mps 726 mmHg 74%
    21:00 +4°C° 0 mm 4 mps 726 mmHg 74%
    22:00 +4°C° 0 mm 4 mps 727 mmHg 74%
    23:00 +4°C° 0 mm 4 mps 727 mmHg 74%

    Tomorrow, 25 September, Tuesday

    Time Temperature Precipitation Wind Pressure Humidity
    00:00 +4°C° 0.1 mm 4 mps 727 mmHg 77%
    01:00 +3°C° 0.1 mm 4 mps 727 mmHg 81%
    02:00 +3°C° 0.1 mm 4 mps 727 mmHg 84%
    03:00 +3°C° 0.3 mm 4 mps 728 mmHg 86%
    04:00 +4°C° 0.3 mm 4 mps 728 mmHg 89%
    05:00 +4°C° 0.3 mm 4 mps 729 mmHg 91%
    06:00 +4°C° 0.1 mm 4 mps 730 mmHg 90%
    07:00 +4°C° 0.1 mm 4 mps 730 mmHg 89%
    08:00 +4°C° 0.1 mm 4 mps 731 mmHg 88%
    09:00 +5°C° 0.1 mm 5 mps 732 mmHg 81%
    10:00 +6°C° 0.1 mm 5 mps 732 mmHg 73%
    11:00 +8°C° 0.1 mm 5 mps 733 mmHg 65%
    12:00 +8°C° 0.2 mm 5 mps 733 mmHg 63%
    13:00 +8°C° 0.2 mm 6 mps 733 mmHg 60%
    14:00 +9°C° 0.2 mm 6 mps 733 mmHg 57%
    15:00 +9°C° 0.1 mm 5 mps 733 mmHg 57%
    16:00 +8°C° 0.1 mm 5 mps 733 mmHg 56%
    17:00 +8°C° 0.1 mm 4 mps 734 mmHg 55%
    18:00 +6°C° 0 mm 4 mps 734 mmHg 60%
    19:00 +5°C° 0 mm 3 mps 735 mmHg 64%
    20:00 +4°C° 0 mm 2 mps 735 mmHg 68%
    21:00 +4°C° 0 mm 2 mps 735 mmHg 70%
    22:00 +3°C° 0 mm 2 mps 736 mmHg 72%
    23:00 +3°C° 0 mm 2 mps 736 mmHg 73%

    Day after tomorrow, 26 September, Wednesday

    Time Temperature Precipitation Wind Pressure Humidity
    00:00 +4°C° 0 mm 1 mps 736 mmHg 74%
    01:00 +3°C° 0 mm 1 mps 737 mmHg 75%
    02:00 +3°C° 0 mm 1 mps 737 mmHg 76%
    03:00 +3°C° 0 mm 1 mps 737 mmHg 79%
    04:00 +3°C° 0 mm 1 mps 737 mmHg 81%
    05:00 +2°C° 0 mm 1 mps 737 mmHg 84%
    06:00 +3°C° 0 mm 1 mps 737 mmHg 81%
    07:00 +4°C° 0 mm 1 mps 737 mmHg 78%
    08:00 +5°C° 0 mm 1 mps 738 mmHg 76%
    09:00 +7°C° 0 mm 1 mps 738 mmHg 66%
    10:00 +9°C° 0 mm 1 mps 738 mmHg 57%
    11:00 +11°C° 0 mm 1 mps 738 mmHg 47%
    12:00 +12°C° 0 mm 2 mps 737 mmHg 45%
    13:00 +13°C° 0 mm 2 mps 737 mmHg 43%
    14:00 +13°C° 0 mm 2 mps 736 mmHg 41%
    15:00 +13°C° 0 mm 2 mps 736 mmHg 45%
    16:00 +13°C° 0 mm 2 mps 735 mmHg 49%
    17:00 +12°C° 0 mm 2 mps 735 mmHg 54%
    18:00 +10°C° 0 mm 2 mps 734 mmHg 58%
    19:00 +8°C° 0 mm 2 mps 734 mmHg 62%
    20:00 +7°C° 0 mm 2 mps 734 mmHg 66%
    21:00 +7°C° 0 mm 3 mps 734 mmHg 66%
    22:00 +7°C° 0 mm 3 mps 734 mmHg 66%
    23:00 +7°C° 0 mm 3 mps 734 mmHg 65%

    27 September, Thursday

    Time Temperature Precipitation Wind Pressure Humidity
    00:00 +7°C° 0 mm 3 mps 734 mmHg 65%
    01:00 +5°C° 0 mm 3 mps 733 mmHg 65%
    02:00 +5°C° 0 mm 3 mps 733 mmHg 65%
    03:00 +5°C° 0 mm 3 mps 733 mmHg 65%
    04:00 +5°C° 0 mm 3 mps 732 mmHg 65%
    05:00 +5°C° 0 mm 3 mps 732 mmHg 65%
    06:00 +5°C° 0 mm 4 mps 732 mmHg 64%
    07:00 +6°C° 0 mm 4 mps 732 mmHg 62%
    08:00 +6°C° 0 mm 4 mps 732 mmHg 60%
    09:00 +8°C° 0 mm 4 mps 732 mmHg 57%
    10:00 +10°C° 0 mm 4 mps 732 mmHg 54%
    11:00 +11°C° 0 mm 4 mps 732 mmHg 50%
    12:00 +13°C° 0 mm 4 mps 731 mmHg 49%
    13:00 +14°C° 0 mm 4 mps 731 mmHg 48%
    14:00 +15°C° 0 mm 4 mps 731 mmHg 46%
    15:00 +15°C° 0 mm 4 mps 730 mmHg 50%
    16:00 +14°C° 0 mm 3 mps 730 mmHg 53%
    17:00 +14°C° 0 mm 3 mps 729 mmHg 56%
    18:00 +12°C° 0 mm 3 mps 729 mmHg 59%
    19:00 +11°C° 0 mm 3 mps 729 mmHg 62%
    20:00 +9°C° 0 mm 3 mps 729 mmHg 65%
    21:00 +9°C° 0 mm 3 mps 729 mmHg 64%
    22:00 +9°C° 0 mm 2 mps 729 mmHg 64%
    23:00 +8°C° 0 mm 2 mps 729 mmHg 63%

    28 September, Friday

    Time Temperature Precipitation Wind Pressure Humidity
    00:00 +8°C° 0 mm 2 mps 728 mmHg 63%
    01:00 +8°C° 0 mm 2 mps 728 mmHg 63%
    02:00 +8°C° 0 mm 2 mps 728 mmHg 63%
    03:00 +8°C° 0 mm 2 mps 727 mmHg 63%
    04:00 +8°C° 0 mm 2 mps 727 mmHg 63%
    05:00 +8°C° 0 mm 2 mps 726 mmHg 63%
    06:00 +8°C° 0 mm 2 mps 726 mmHg 62%
    07:00 +9°C° 0 mm 2 mps 726 mmHg 61%
    08:00 +10°C° 0 mm 2 mps 726 mmHg 61%
    09:00 +13°C° 0 mm 2 mps 726 mmHg 56%
    10:00 +14°C° 0 mm 3 mps 726 mmHg 51%
    11:00 +17°C° 0 mm 3 mps 726 mmHg 47%
    12:00 +18°C° 0 mm 2 mps 726 mmHg 46%
    13:00 +19°C° 0 mm 2 mps 726 mmHg 46%
    14:00 +19°C° 0 mm 2 mps 726 mmHg 45%
    15:00 +19°C° 0 mm 2 mps 726 mmHg 50%
    16:00 +19°C° 0 mm 1 mps 726 mmHg 55%
    17:00 +19°C° 0 mm 1 mps 726 mmHg 60%
    18:00 +16°C° 0 mm 1 mps 726 mmHg 67%
    19:00 +14°C° 0 mm 1 mps 726 mmHg 73%
    20:00 +12°C° 0 mm 1 mps 726 mmHg 80%
    21:00 +11°C° 0 mm 1 mps 726 mmHg 83%
    22:00 +11°C° 0 mm 1 mps 727 mmHg 86%
    23:00 +11°C° 0 mm 1 mps 727 mmHg 89%

    29 September, Saturday

    Time Temperature Precipitation Wind Pressure Humidity
    00:00 +10°C° 0 mm 2 mps 727 mmHg 90%
    01:00 +9°C° 0 mm 2 mps 727 mmHg 91%
    02:00 +9°C° 0 mm 2 mps 727 mmHg 91%
    03:00 +9°C° 0 mm 2 mps 727 mmHg 91%
    04:00 +9°C° 0 mm 2 mps 728 mmHg 91%
    05:00 +9°C° 0 mm 2 mps 728 mmHg 92%
    06:00 +9°C° 0 mm 2 mps 728 mmHg 90%
    07:00 +9°C° 0 mm 2 mps 728 mmHg 88%
    08:00 +10°C° 0 mm 3 mps 729 mmHg 87%
    09:00 +11°C° 0 mm 3 mps 729 mmHg 81%
    10:00 +12°C° 0 mm 4 mps 730 mmHg 76%
    11:00 +12°C° 0 mm 4 mps 730 mmHg 70%
    12:00 +13°C° 0 mm 4 mps 730 mmHg 68%
    13:00 +13°C° 0 mm 4 mps 730 mmHg 65%
    14:00 +14°C° 0 mm 4 mps 730 mmHg 62%
    15:00 +13°C° 0 mm 4 mps 730 mmHg 64%
    16:00 +12°C° 0 mm 4 mps 730 mmHg 66%
    17:00 +12°C° 0 mm 4 mps 730 mmHg 69%
    18:00 +10°C° 0 mm 3 mps 730 mmHg 74%
    19:00 +9°C° 0 mm 3 mps 730 mmHg 80%
    20:00 +8°C° 0 mm 2 mps 730 mmHg 85%
    21:00 +7°C° 0 mm 2 mps 730 mmHg 87%
    22:00 +7°C° 0 mm 2 mps 730 mmHg 88%
    23:00 +6°C° 0 mm 2 mps 730 mmHg 90%
    Show more